TimeCET,TemperatureF,Dew PointF,Humidity,Sea Level PressureIn,VisibilityMPH,Wind Direction,Wind SpeedMPH,Gust SpeedMPH,PrecipitationIn,Events,Conditions,WindDirDegrees,DateUTC
12:55 AM,64.4,55.4,73,30.01,6.2,NW,6.9,-,N/A,,Partly Cloudy,320,2012-11-02 23:55:00
1:00 AM,64,55,64,30.02,6,NW,6.9,,,,Scattered Clouds,320,2012-11-03 00:00:00
1:55 AM,64.4,53.6,68,30.01,6.2,NW,5.8,-,N/A,,Scattered Clouds,310,2012-11-03 00:55:00
2:55 AM,64.4,53.6,68,30.01,6.2,NW,8.1,-,N/A,,Scattered Clouds,320,2012-11-03 01:55:00
3:55 AM,64.4,55.4,73,30.01,6.2,NW,5.8,-,N/A,,Scattered Clouds,320,2012-11-03 02:55:00
4:55 AM,64.4,55.4,73,30.01,6.2,NW,2.3,-,N/A,,Scattered Clouds,320,2012-11-03 03:55:00
5:55 AM,64.4,55.4,73,30.01,6.2,NNW,1.2,-,N/A,,Scattered Clouds,340,2012-11-03 04:55:00
6:55 AM,62.6,55.4,77,30.04,6.2,NW,3.5,-,N/A,,Scattered Clouds,310,2012-11-03 05:55:00
7:00 AM,63,56,70,30.05,6,NW,3.5,,,,Partly Cloudy,310,2012-11-03 06:00:00
7:55 AM,62.6,57.2,82,30.04,6.2,NNW,2.3,-,N/A,,Scattered Clouds,330,2012-11-03 06:55:00
8:55 AM,68.0,57.2,68,30.06,6.2,East,4.6,-,N/A,,Scattered Clouds,90,2012-11-03 07:55:00
9:55 AM,68.0,55.4,64,30.06,6.2,Variable,1.2,-,N/A,,Scattered Clouds,0,2012-11-03 08:55:00
10:55 AM,69.8,53.6,56,30.06,6.2,East,5.8,-,N/A,,Partly Cloudy,80,2012-11-03 09:55:00
11:55 AM,71.6,53.6,53,30.06,6.2,East,4.6,-,N/A,,Partly Cloudy,80,2012-11-03 10:55:00
12:55 PM,71.6,51.8,50,30.04,6.2,East,5.8,-,N/A,,Partly Cloudy,80,2012-11-03 11:55:00
1:00 PM,72,52,38,30.06,12,East,5.8,,,,Scattered Clouds,80,2012-11-03 12:00:00
1:55 PM,71.6,50.0,46,30.04,6.2,ENE,4.6,-,N/A,,Scattered Clouds,70,2012-11-03 12:55:00
2:55 PM,69.8,50.0,49,30.04,6.2,ENE,3.5,-,N/A,,Scattered Clouds,70,2012-11-03 13:55:00
3:55 PM,69.8,53.6,56,30.04,6.2,NNE,2.3,-,N/A,,Scattered Clouds,20,2012-11-03 14:55:00
4:55 PM,68.0,55.4,64,30.04,6.2,NNE,1.2,-,N/A,,Partly Cloudy,30,2012-11-03 15:55:00
5:55 PM,66.2,55.4,68,30.04,6.2,NW,3.5,-,N/A,,Partly Cloudy,320,2012-11-03 16:55:00
6:55 PM,66.2,55.4,68,30.04,6.2,NW,2.3,-,N/A,,Partly Cloudy,310,2012-11-03 17:55:00
7:00 PM,66,55,60,30.06,12,NW,2.3,,,,Scattered Clouds,310,2012-11-03 18:00:00
7:55 PM,64.4,55.4,73,30.04,6.2,Calm,Calm,-,N/A,,Partly Cloudy,0,2012-11-03 18:55:00
8:55 PM,64.4,55.4,73,30.04,6.2,Calm,Calm,-,N/A,,Partly Cloudy,0,2012-11-03 19:55:00
9:55 PM,62.6,55.4,77,30.06,6.2,Calm,Calm,-,N/A,,Partly Cloudy,0,2012-11-03 20:55:00
10:55 PM,62.6,55.4,77,30.06,6.2,Calm,Calm,-,N/A,,Partly Cloudy,0,2012-11-03 21:55:00
11:55 PM,62.6,53.6,72,30.06,6.2,Calm,Calm,-,N/A,,Partly Cloudy,0,2012-11-03 22:55:00